Location: Oak Glen
(34.0495°N, 116.9470°E)
Time: 19:30:15
(UTC-07:00)

N. Korean satellite - Pass Details

Date: 16 October 2017
Orbit: 459 x 517 km, 97.2° (Epoch: 22 October)

Event Time Altitude Azimuth Distance (km) Brightness Sun altitude
Rises 02:58:41 0° 154° (SSE) 2,545 10.0 -5.2°
Reaches altitude 10° 03:00:49 10° 148° (SSE) 1,659 9.0 -5.7°
Maximum altitude 03:04:12 43° 76° (ENE) 683 6.9 -6.4°
Drops below altitude 10° 03:07:33 10° 3° (N) 1,640 9.2 -7.1°
Sets 03:09:39 0° 357° (N) 2,512 10.2 -7.5°
